Weather in Česká Skalice

Czech Republic     50°23′40″N   16°02′32″E
temp.,
°C
wind,
m/s
gust,
m/s
humid.,
%
clouds,
%
prec.,
mm/h
press.,
hPa
HPBL,
m
7 august, sun
sun723:00+12nne3365100 0.0 102540
02:00+12nne346212 0.0 102564
05:00+10nne38691 0.0 1026156
08:00+14ne38580 0.0 1025379
11:00+18ene56420 0.0 10251414
14:00+21ene45352 0.0 10231735
17:00+20ne553898 0.0 10221642
20:00+15ne3658100 0.0 1022124
8 august, mon
mon823:00+12ne3562100 0.0 102387
02:00+11nne3367100 0.0 102342
05:00+11nne3369100 0.0 102346
08:00+15nne3758100 0.0 1023340
11:00+20ene4542100 0.0 10231156
14:00+22ene44370 0.0 10221813
17:00+23ene44360 0.0 10222009
20:00+17ne35580 0.0 102377
9 august, tue
tue923:00+14ne236610 0.0 102537
02:00+13nne22680 0.0 102522
05:00+12nne22700 0.0 102526
08:00+17nne35580 0.0 1025283
11:00+22ene56410 0.0 10251778
14:00+24ene563530 0.0 10252500
17:00+21e474693 0.0 1025615
20:00+18ene22577 0.0 102517
10 august, wed
wed1023:00+14nne226496 0.0 102616
02:00+13nne226822 0.0 102712
05:00+13nne227195 0.0 102611
08:00+18nne1157100 0.0 1027118
11:00+23ene35382 0.0 10262220
14:00+25ne45325 0.0 10252419
17:00+25ne45325 0.0 10242421
20:00+19ene225475 0.0 102416
11 august, thu
thu1123:00+15nne2262100 0.0 102512
02:00+15nne2261100 0.0 102512
05:00+14nne226281 0.0 102513
08:00+19ne235286 0.0 1024156
11:00+23ene453394 0.0 10241705
14:00+25ene44274 0.0 10232087
17:00+25e45310 0.0 10222192
20:00+20ne24521 0.0 102260